Regional Weather Roundup
Issued by NWS

Home | Current Version | Previous Version | Text Only | Print | Product List | Glossary Off
Versions: 1 2 3 4 5 6 7 8 9 10 11 12 13 14 15 16 17 18 19 20 21 22 23 24 25 26 27 28 29 30 31 32 33 34 35 36 37 38 39 40 41 42 43 44 45 46 47 48 49 50

000
ASUS43 KLMK 181410
RWRKY
KENTUCKY REGIONAL WEATHER ROUNDUP
NATIONAL WEATHER SERVICE LOUISVILLE KY
900 AM EST MON DEC 18 2017

NOTE "FAIR" INDICATES FEW OR NO CLOUDS BELOW 12,000 FEET
WITH NO SIGNIFICANT WEATHER AND/OR OBSTRUCTIONS TO VISIBILITY.

KYZ001>023-026-027-061>063-070>075-181500-
WESTERN AND SOUTH CENTRAL KENTUCKY

CITY           SKY/WX    TMP DP  RH WIND       PRES   REMARKS
PADUCAH        CLOUDY    45  42  89 S5        30.13S FOG
HENDERSON      CLOUDY    44  43  96 SW8       30.13S FOG
OWENSBORO      LGT RAIN  44  43  96 S8        30.13R FOG
HOPKINSVILLE   CLOUDY    45  45 100 SW5       30.15S FOG
BOWLING GREEN  CLOUDY    47  46  97 SW6       30.16R FOG
GLASGOW        CLOUDY   N/A N/A N/A CALM      30.14F FOG
$$

KYZ024-025-028>034-038-045-046-053-181500-
NORTH CENTRAL KENTUCKY

CITY           SKY/WX    TMP DP  RH WIND       PRES   REMARKS
LOUISVILLE/SDF CLOUDY    46  43  89 SW6       30.12S
LOUISVILLE/LOU CLOUDY    46  44  93 S8        30.13R
FORT KNOX      DRIZZLE   43  43 100 S6        30.12S FOG
$$

KYZ035>037-039>044-047>052-055>060-089>105-181500-
NORTHEAST KENTUCKY

CITY           SKY/WX    TMP DP  RH WIND       PRES   REMARKS
LEXINGTON      CLOUDY    44  42  93 SW12      30.13S FOG
COVINGTON      DRZL/FOG  43  43 100 SW7       30.09R VSB 1/8
FRANKFORT      CLOUDY    45  42  89 S10       30.11S
$$

KYZ054-064>069-076>088-106>120-181500-
SOUTHEAST KENTUCKY

CITY           SKY/WX    TMP DP  RH WIND       PRES   REMARKS
JACKSON        CLOUDY    44  43  96 SW3       30.13S FOG
LONDON         CLOUDY    45  44  97 S5        30.15R FOG
SOMERSET       CLOUDY    43  43 100 CALM      30.17S FOG
MIDDLESBORO    CLOUDY    41  41 100 CALM      30.18S FOG
MONTICELLO     LGT RAIN  46  46 100 NW9       30.17S FOG
$$





USA.gov is the U.S. government's official web portal to all federal, state and local government web resources and services.